Voltar ao catálogo

COSMOS 1814 DEB *

AtivoLEO
NORAD 18257·DEBRIS·🇷🇺 Russia

Lançado Jan 21, 1987 de Plesetsk Cosmodrome

Loading…

Próximas Passagens (próximas 24 horas)

TLE

AtualizadoSource: Space-Track

Época: Sep 14, 2026, 03:32 UTC

1 18257U 87006C   26257.14756594  .00001624  00000-0  26402-3 0  9997
2 18257  74.0331 152.4246 0006172 242.5096 117.5449 14.71964793168211

Acompanhe COSMOS 1814 DEB * em tempo real com AllMySat

Download on the App Store